[[{"header":{"parameterUnit":"m.s-1","parameterCategory":1,"la1":30.2991,"la2":30.254,"lo1":-89.0895,"lo2":-89.0444,"dy":0.0017,"dx":0.0017,"nx":28,"ny":28,"refTime":"2026-02-04T03:00:00:Z","depth":0,"parameterNumber":2,"parameterNumberName":"U-component_of_WINDS"},"data":[0,0,0,0,0,0,0,0,0,0,0,0,0,0,0,0,0,0,0,0,0,0,0,0,0,0,0,0,0,0,0,0,0,0,0,0,0,0,0,0,0,0,0,0,0,0,0,0,0,0,0,0,0,0,0,0,0,0,3.0709,3.0709,0,3.0701,3.0701,3.0701,3.0666,3.0665,3.0664,3.0664,3.0656,3.0657,3.0657,0,0,0,0,0,0,0,0,0,0,0,0,0,3.0694,3.0695,3.0709,3.0709,3.0709,3.0701,3.0701,3.0701,3.0666,3.0665,3.0664,3.0663,3.0656,3.0656,3.0657,0,0,0,0,0,0,0,0,0,0,0,0,0,3.0695,3.0695,3.0709,3.0691,3.0689,3.0701,3.0701,3.0701,3.0666,3.0665,3.0664,3.0663,3.0656,3.0656,3.0657,3.0687,0,0,3.066,3.066,0,0,0,0,0,0,0,0,3.0695,3.0696,3.0693,3.0692,3.069,3.0683,3.0693,3.0697,3.0667,3.0675,3.0664,3.0662,3.0666,3.0666,3.0667,3.0687,3.0687,3.066,3.066,3.0661,3.0661,0,0,0,0,0,0,0,3.0695,3.0696,3.0706,3.0693,3.0691,3.0683,3.0682,3.0694,3.0678,3.0674,3.0671,3.0671,3.0665,3.0667,3.0667,3.0687,3.066,3.0661,3.0661,3.0662,3.0731,3.0733,0,0,0,0,0,0,3.0698,3.0696,3.0706,3.0706,3.069,3.0684,3.0683,3.0687,3.0677,3.0675,3.0672,3.0669,3.0666,3.0666,3.0666,3.0701,3.0661,3.0662,3.0662,3.073,3.0732,3.0733,0,0,0,0,0,0,3.0698,3.0699,3.0707,3.07,3.0701,3.0686,3.0691,3.0687,3.0689,3.0676,3.0673,3.0677,3.0665,3.0665,3.0683,3.07,3.0662,3.0663,3.0728,3.073,3.0732,3.0771,0,0,0,0,0,0,3.0697,3.0699,3.071,3.0701,3.0701,3.0723,3.0692,3.0688,3.069,3.0687,3.0679,3.0677,3.0664,3.0681,3.0683,3.0701,3.0663,3.0727,3.0729,3.0732,3.0768,3.0774,3.0779,0,0,0,0,0,3.0697,3.0721,3.0711,3.0712,3.0714,3.0724,3.0724,3.0708,3.0692,3.0703,3.0695,3.0677,3.0698,3.0684,3.0685,3.0703,3.0725,3.0729,3.0731,3.0765,3.0772,3.0779,0,0,0,0,0,0,3.0732,3.0719,3.0708,3.073,3.0728,3.0718,3.0731,3.0716,3.0719,3.0716,3.0696,3.0695,3.0715,3.0711,3.0695,3.0732,3.0709,3.0713,3.0734,3.0741,3.0746,3.0746,3.0664,0,0,0,0,0,3.0743,3.0751,3.074,3.076,3.076,3.0746,3.0749,3.0737,3.0735,3.0734,3.0727,3.0726,3.0732,3.0736,3.0741,3.0767,3.0765,3.0781,3.0786,3.0791,3.0794,3.0808,3.0814,3.0743,3.0743,3.0743,0,0,3.0764,3.0758,3.0765,3.0767,3.0764,3.0774,3.0745,3.0756,3.0763,3.0736,3.0751,3.0747,3.0744,3.0765,3.0775,3.0763,3.0814,3.0795,3.0799,3.0799,3.0811,3.0818,3.0824,3.0745,3.0745,3.0744,0,0,3.0808,3.0805,3.0821,3.082,3.0816,3.0807,3.0811,3.0803,3.0799,3.0814,3.0794,3.0802,3.0813,3.0812,3.0813,3.0858,3.0842,3.0861,3.0889,3.0903,3.0908,3.0913,3.0929,3.0935,3.0864,3.0864,3.0864,0,3.0835,3.0848,3.0832,3.0844,3.0846,3.0822,3.0839,3.0838,3.0837,3.0839,3.0825,3.0839,3.0836,3.0857,3.0868,3.087,3.0874,3.086,3.0909,3.0913,3.0918,3.0932,3.0938,3.0866,3.0866,3.0866,3.0865,0,3.0882,3.0891,3.0905,3.0904,3.0908,3.0923,3.0909,3.0914,3.0903,3.0895,3.0912,3.0907,3.0911,3.0915,3.0904,3.0935,3.0928,3.0912,3.0888,3.0927,3.094,3.0946,3.0869,3.0868,3.0868,3.0867,0,0,3.0946,3.0937,3.0942,3.0942,3.0937,3.0944,3.0958,3.0962,3.0967,3.0967,3.0979,3.0989,3.0975,3.0976,3.0965,3.0977,3.1013,3.096,3.0959,3.0969,3.1046,3.1058,3.1064,3.1003,3.1004,3.1004,3.1047,0,3.0987,3.101,3.0996,3.1022,3.103,3.1009,3.1021,3.102,3.1013,3.102,3.1013,3.1021,3.1002,3.1002,3.1013,3.1006,3.1028,3.1003,3.1012,3.1013,3.1013,3.1071,3.1083,3.1123,3.1052,3.1053,3.1053,0,3.1038,3.104,3.1067,3.1061,3.1064,3.1075,3.1078,3.1085,3.1083,3.1077,3.1079,3.1065,3.1079,3.1057,3.1075,3.1059,3.1062,3.106,3.1061,3.106,3.1035,3.1072,3.1135,3.1141,3.1061,3.1061,3.106,0,3.1081,3.1092,3.1109,3.1109,3.1103,3.1111,3.1109,3.1106,3.1109,3.1112,3.1114,3.1119,3.1121,3.1125,3.1113,3.1098,3.1133,3.111,3.1129,3.1129,3.1136,3.1136,3.12,3.114,3.114,3.114,3.114,0,3.1128,3.1145,3.1128,3.1138,3.1157,3.1142,3.116,3.1156,3.1154,3.1163,3.1145,3.1154,3.1138,3.1146,3.1137,3.1153,3.1155,3.1151,3.1148,3.1152,3.1152,3.1153,3.1149,3.1142,3.1141,3.1141,3.1141,0,3.1179,3.1169,3.1186,3.1179,3.1177,3.1191,3.1185,3.1195,3.1188,3.12,3.1202,3.1191,3.1199,3.1188,3.1195,3.1189,3.1212,3.1205,3.1212,3.121,3.1229,3.1228,3.1296,3.1304,3.124,3.124,3.1241,0,3.1209,3.1222,3.1216,3.1221,3.122,3.1228,3.1232,3.1218,3.1223,3.1222,3.1232,3.1239,3.1243,3.1258,3.125,3.1256,3.1249,3.1273,3.1249,3.1253,3.1248,3.1247,3.1248,3.1277,3.1278,3.1278,3.1279,0,3.1263,3.1258,3.1264,3.1268,3.1273,3.1276,3.1277,3.1283,3.1268,3.1274,3.1282,3.1286,3.1294,3.1301,3.1304,3.1302,3.1288,3.1286,3.1291,3.1294,3.1298,3.1296,3.1224,3.1284,3.1284,3.1283,3.1283,3.1283,3.1304,3.1314,3.1312,3.132,3.132,3.1322,3.133,3.1325,3.1331,3.1336,3.1328,3.1339,3.1337,3.1341,3.1341,3.1349,3.1339,3.1345,3.1347,3.1349,3.1351,3.1297,3.135,3.135,3.1349,3.1349,3.1349,0,3.1357,3.1355,3.1362,3.1365,3.1371,3.1358,3.1359,3.1365,3.1374,3.1374,3.138,3.1389,3.1396,3.139,3.1396,3.1404,3.1398,3.1406,3.1404,3.1404,3.1361,3.1356,3.1411,3.1411,3.1411,3.1411,3.1411,3.1411,3.1385,3.1402,3.1396,3.1413,3.141,3.1421,3.1422,3.1424,3.1424,3.1436,3.1442,3.1438,3.1436,3.1442,3.1447,3.1446,3.1448,3.1459,3.1454,3.1413,3.1407,3.1401,3.1397,3.146,3.146,3.1497,3.1497,3.1498]},{"header":{"parameterUnit":"m.s-1","parameterCategory":1,"la1":30.2991,"la2":30.254,"lo1":-89.0895,"lo2":-89.0444,"dy":0.0017,"dx":0.0017,"nx":28,"ny":28,"refTime":"2026-02-04T03:00:00:Z","depth":0,"parameterNumber":3,"parameterNumberName":"V-component_of_WINDS"},"data":[0,0,0,0,0,0,0,0,0,0,0,0,0,0,0,0,0,0,0,0,0,0,0,0,0,0,0,0,0,0,0,0,0,0,0,0,0,0,0,0,0,0,0,0,0,0,0,0,0,0,0,0,0,0,0,0,0,0,-7.4149,-7.4151,0,-7.4307,-7.4308,-7.431,-7.4243,-7.4239,-7.4235,-7.4232,-7.4388,-7.4395,-7.4403,0,0,0,0,0,0,0,0,0,0,0,0,0,-7.3785,-7.3792,-7.4149,-7.4151,-7.4153,-7.4306,-7.4308,-7.4311,-7.4243,-7.4239,-7.4234,-7.423,-7.4385,-7.4394,-7.4404,0,0,0,0,0,0,0,0,0,0,0,0,0,-7.3943,-7.3794,-7.4148,-7.4138,-7.4139,-7.4306,-7.4308,-7.4311,-7.4244,-7.4239,-7.4233,-7.4228,-7.4382,-7.4393,-7.4405,-7.459,0,0,-7.444,-7.4445,0,0,0,0,0,0,0,0,-7.3934,-7.3956,-7.4137,-7.4139,-7.414,-7.4249,-7.4237,-7.4404,-7.4246,-7.4204,-7.4231,-7.4225,-7.4346,-7.436,-7.4402,-7.4597,-7.4604,-7.4441,-7.4448,-7.4453,-7.4456,0,0,0,0,0,0,0,-7.3923,-7.3949,-7.4211,-7.414,-7.4142,-7.4124,-7.414,-7.4269,-7.4305,-7.4207,-7.4203,-7.4223,-7.4345,-7.4391,-7.4405,-7.4606,-7.4441,-7.4451,-7.4458,-7.4463,-7.4962,-7.4968,0,0,0,0,0,0,-7.3913,-7.394,-7.4206,-7.4216,-7.4021,-7.4135,-7.4153,-7.422,-7.4303,-7.4311,-7.4227,-7.4219,-7.4374,-7.4392,-7.441,-7.4633,-7.4453,-7.4464,-7.447,-7.4955,-7.4963,-7.497,0,0,0,0,0,0,-7.3905,-7.3937,-7.42,-7.4077,-7.4109,-7.4147,-7.4223,-7.4226,-7.4272,-7.4319,-7.4324,-7.4268,-7.437,-7.4394,-7.4546,-7.4638,-7.4469,-7.4479,-7.4948,-7.4958,-7.4966,-7.508,0,0,0,0,0,0,-7.3895,-7.3935,-7.4007,-7.4079,-7.4116,-7.4335,-7.4229,-7.4233,-7.4292,-7.4283,-7.4358,-7.4365,-7.4368,-7.453,-7.4558,-7.4651,-7.4488,-7.494,-7.4952,-7.4963,-7.5069,-7.5093,-7.5113,0,0,0,0,0,-7.3882,-7.4031,-7.4011,-7.4043,-7.4207,-7.434,-7.4361,-7.4363,-7.43,-7.4372,-7.4402,-7.4362,-7.4623,-7.4546,-7.4577,-7.4675,-7.4934,-7.4949,-7.4963,-7.5059,-7.5088,-7.5113,0,0,0,0,0,0,-7.3967,-7.4041,-7.4019,-7.4196,-7.4263,-7.4329,-7.442,-7.4394,-7.4478,-7.4466,-7.4463,-7.448,-7.4638,-7.4671,-7.4583,-7.4858,-7.4769,-7.479,-7.4831,-7.4859,-7.4881,-7.487,-7.4498,0,0,0,0,0,-7.4006,-7.411,-7.4168,-7.4319,-7.4354,-7.4381,-7.4439,-7.4435,-7.4503,-7.4531,-7.4572,-7.4638,-7.4735,-7.4799,-7.489,-7.5073,-7.5088,-7.5155,-7.5177,-7.5195,-7.5214,-7.5313,-7.5344,-7.5017,-7.5016,-7.5016,0,0,-7.4088,-7.4142,-7.4207,-7.4337,-7.4388,-7.4495,-7.4405,-7.4521,-7.46,-7.4548,-7.4695,-7.4727,-7.4801,-7.4969,-7.5045,-7.5002,-7.5307,-7.5214,-7.5228,-7.5236,-7.5331,-7.5362,-7.5389,-7.5026,-7.5024,-7.5023,0,0,-7.4293,-7.4344,-7.4475,-7.4529,-7.4608,-7.4626,-7.4657,-7.4728,-7.4748,-7.4896,-7.4859,-7.4951,-7.5118,-7.5172,-7.5222,-7.5447,-7.5414,-7.5477,-7.5593,-7.569,-7.5716,-7.5738,-7.5819,-7.5848,-7.5495,-7.5495,-7.5496,0,-7.4385,-7.4545,-7.4545,-7.4666,-7.4724,-7.4683,-7.4816,-7.4867,-7.4971,-7.5012,-7.4962,-7.5171,-7.5218,-7.5398,-7.5454,-7.5495,-7.553,-7.5469,-7.5712,-7.5735,-7.5756,-7.5833,-7.5863,-7.5503,-7.5502,-7.5501,-7.55,0,-7.4654,-7.4766,-7.4862,-7.4967,-7.5035,-7.5161,-7.5179,-7.5248,-7.5238,-7.526,-7.5411,-7.5466,-7.5568,-7.561,-7.56,-7.579,-7.576,-7.5712,-7.5622,-7.5795,-7.5867,-7.5896,-7.5513,-7.551,-7.5508,-7.5506,0,0,-7.4916,-7.502,-7.5055,-7.5102,-7.5187,-7.5273,-7.5396,-7.5498,-7.5557,-7.563,-7.5733,-7.5875,-7.5831,-7.5887,-7.5883,-7.5968,-7.6144,-7.5909,-7.591,-7.5951,-7.6355,-7.6392,-7.6426,-7.6122,-7.6127,-7.6132,-7.6349,0,-7.5127,-7.5346,-7.535,-7.5549,-7.5652,-7.5615,-7.5722,-7.5785,-7.5809,-7.5899,-7.5924,-7.6025,-7.5959,-7.5993,-7.6075,-7.6105,-7.6225,-7.6089,-7.6216,-7.6221,-7.62,-7.6464,-7.6503,-7.6706,-7.6377,-7.6382,-7.6386,0,-7.5403,-7.5488,-7.5698,-7.5768,-7.5812,-7.5908,-7.6002,-7.6089,-7.6158,-7.617,-7.6233,-7.6217,-7.6341,-7.6247,-7.6417,-7.6325,-7.6377,-7.6399,-7.6407,-7.6419,-7.6314,-7.6483,-7.677,-7.6801,-7.643,-7.6427,-7.6423,0,-7.5574,-7.574,-7.5887,-7.5929,-7.6014,-7.6083,-7.6121,-7.6186,-7.6247,-7.6328,-7.6368,-7.6462,-7.6513,-7.6586,-7.6594,-7.6525,-7.6766,-7.6672,-7.6778,-7.6778,-7.683,-7.6827,-7.713,-7.6864,-7.6863,-7.6863,-7.6862,0,-7.581,-7.594,-7.5965,-7.6056,-7.6201,-7.6204,-7.6346,-7.6378,-7.6436,-7.6532,-7.6504,-7.6594,-7.66,-7.6692,-7.6699,-7.6839,-7.6862,-7.6874,-7.6874,-7.6877,-7.6876,-7.6911,-7.6897,-7.6871,-7.6869,-7.6867,-7.6866,0,-7.6025,-7.6048,-7.6206,-7.6275,-7.6295,-7.6398,-7.6456,-7.6542,-7.6564,-7.6685,-7.6713,-7.6746,-7.6853,-7.6869,-7.6993,-7.6997,-7.7166,-7.7151,-7.7143,-7.7141,-7.7246,-7.7236,-7.7583,-7.7628,-7.7332,-7.7334,-7.7337,0,-7.6174,-7.6274,-7.6354,-7.6417,-7.646,-7.6561,-7.6624,-7.663,-7.6696,-7.6784,-7.6859,-7.6963,-7.7047,-7.7219,-7.7253,-7.7347,-7.7335,-7.745,-7.7349,-7.7349,-7.7337,-7.7332,-7.7341,-7.747,-7.7473,-7.7475,-7.7478,0,-7.6437,-7.6444,-7.6536,-7.6633,-7.6709,-7.6785,-7.6857,-7.691,-7.6925,-7.7,-7.711,-7.7175,-7.7303,-7.7407,-7.7501,-7.7538,-7.7511,-7.7509,-7.7539,-7.7543,-7.7534,-7.754,-7.7197,-7.7501,-7.7499,-7.7497,-7.7496,-7.7495,-7.6625,-7.6712,-7.6782,-7.6886,-7.6941,-7.7009,-7.7093,-7.7126,-7.7218,-7.7324,-7.7321,-7.7442,-7.7509,-7.7633,-7.7677,-7.777,-7.7732,-7.7775,-7.7786,-7.7796,-7.7807,-7.7519,-7.7787,-7.7786,-7.7785,-7.7785,-7.7784,0,-7.6886,-7.693,-7.7026,-7.7128,-7.721,-7.7178,-7.7256,-7.7326,-7.7433,-7.7498,-7.7582,-7.7708,-7.7808,-7.7851,-7.7949,-7.8015,-7.8005,-7.8041,-7.8036,-7.8045,-7.7835,-7.78,-7.8047,-7.8047,-7.8047,-7.8047,-7.8047,-7.8047,-7.7032,-7.7178,-7.7193,-7.7366,-7.7407,-7.7527,-7.7574,-7.7636,-7.7689,-7.7831,-7.7915,-7.7943,-7.7999,-7.8101,-7.8191,-7.8201,-7.8238,-7.828,-7.8284,-7.8086,-7.806,-7.8035,-7.8002,-7.8288,-7.8288,-7.8487,-7.8488,-7.849]}]]